TimeEST,TemperatureF,Dew PointF,Humidity,Sea Level PressureIn,VisibilityMPH,Wind Direction,Wind SpeedMPH,Gust SpeedMPH,PrecipitationIn,Events,Conditions,WindDirDegrees,DateUTC
12:54 AM,-13.0,-17.0,82,30.40,10.0,Calm,Calm,-,N/A,,Clear,0,2014-03-02 05:54:00
1:54 AM,-14.1,-18.9,79,30.41,10.0,Calm,Calm,-,N/A,,Clear,0,2014-03-02 06:54:00
2:24 AM,-15.0,-20.0,78,30.34,10.0,Calm,Calm,-,N/A,,Mostly Cloudy,0,2014-03-02 07:24:00
2:54 AM,-14.1,-20.0,75,30.41,10.0,Calm,Calm,-,N/A,,Mostly Cloudy,0,2014-03-02 07:54:00
3:14 AM,-13.0,-18.9,75,30.34,10.0,Calm,Calm,-,N/A,,Scattered Clouds,0,2014-03-02 08:14:00
3:54 AM,-14.1,-20.0,75,30.42,10.0,Calm,Calm,-,N/A,,Clear,0,2014-03-02 08:54:00
4:54 AM,-15.0,-20.0,78,30.43,10.0,Calm,Calm,-,N/A,,Clear,0,2014-03-02 09:54:00
5:20 AM,-16.1,-20.9,79,30.36,10.0,Calm,Calm,-,N/A,,Mostly Cloudy,0,2014-03-02 10:20:00
5:30 AM,-15.0,-20.9,75,30.37,10.0,Calm,Calm,-,N/A,,Mostly Cloudy,0,2014-03-02 10:30:00
5:54 AM,-17.0,-23.1,74,30.43,10.0,Calm,Calm,-,N/A,,Overcast,0,2014-03-02 10:54:00
6:54 AM,-18.0,-23.1,78,30.43,10.0,Calm,Calm,-,N/A,,Clear,0,2014-03-02 11:54:00
7:54 AM,-5.1,-11.0,76,30.42,10.0,WNW,9.2,-,N/A,,Clear,290,2014-03-02 12:54:00
8:54 AM,-4.0,-9.9,76,30.43,10.0,WNW,9.2,-,N/A,,Clear,300,2014-03-02 13:54:00
9:54 AM,-2.0,-9.0,72,30.42,10.0,WNW,9.2,-,N/A,,Clear,290,2014-03-02 14:54:00
10:54 AM,-0.9,-11.0,62,30.42,10.0,NW,11.5,-,N/A,,Partly Cloudy,320,2014-03-02 15:54:00
11:54 AM,-0.0,-9.9,63,30.42,10.0,West,10.4,-,N/A,,Clear,280,2014-03-02 16:54:00
12:54 PM,3.0,-9.9,55,30.40,10.0,WNW,15.0,-,N/A,,Clear,290,2014-03-02 17:54:00
1:54 PM,3.0,-9.9,55,30.38,10.0,West,16.1,20.7,N/A,,Clear,280,2014-03-02 18:54:00
2:54 PM,3.0,-9.9,55,30.37,10.0,West,13.8,19.6,N/A,,Clear,260,2014-03-02 19:54:00
3:54 PM,3.0,-11.9,50,30.37,10.0,West,9.2,-,N/A,,Clear,280,2014-03-02 20:54:00
4:54 PM,1.9,-11.9,52,30.35,10.0,West,10.4,-,N/A,,Clear,260,2014-03-02 21:54:00
5:54 PM,1.9,-11.0,55,30.36,10.0,WSW,6.9,-,N/A,,Clear,240,2014-03-02 22:54:00
6:54 PM,-0.9,-11.0,62,30.38,9.0,West,4.6,-,N/A,,Clear,260,2014-03-02 23:54:00
7:54 PM,-2.9,-11.9,65,30.38,10.0,Calm,Calm,-,N/A,,Clear,0,2014-03-03 00:54:00
8:54 PM,-7.1,-13.0,75,30.40,10.0,West,3.5,-,N/A,,Clear,270,2014-03-03 01:54:00
9:54 PM,-18.0,-20.9,87,30.43,10.0,Calm,Calm,-,N/A,,Clear,0,2014-03-03 02:54:00
10:54 PM,-20.0,-24.0,82,30.44,10.0,Calm,Calm,-,N/A,,Clear,0,2014-03-03 03:54:00
11:54 PM,-20.0,-24.0,82,30.46,10.0,Calm,Calm,-,N/A,,Clear,0,2014-03-03 04:54:00